User: anonymous   Login
Location: Garbet
(42.8837°N, 1.2115°E)
Time: 11:36:23
(UTC+00:00)
Language:

Cosmos 1953 Rocket - Orbit

View from above orbital plane
View from above orbital plane
View from above satellite
View from above satellite

Ground track
Ground track

The orbit is defined by the following mean orbital elements,

1 19211U          26040.24888016 +.00000000 +00000-0 +66695-4 0 00002
2 19211  82.5271 125.1173 0021984 136.0886 224.2082 14.85354621    06
Epoch (UTC): 09 February 2026 05:58:23
Eccentricity: 0.0021984
inclination: 82.5271°
perigee height: 597 km
apogee height: 628 km
right ascension of ascending node: 125.1173°
argument of perigee: 136.0886°
revolutions per day: 14.85354621
mean anomaly at epoch: 224.2082°

The dashed part of the orbit path shows where the satellite is in the earth's shadow,  

DLR